DIRECTV 8               
1 28659U 05019A   19260.60447022 -.00000121  00000-0  00000-0 0  9993
2 28659   0.0194 240.4632 0003078 301.9772 290.6704  1.00272222 52434
BREEZE-M R/B            
1 28660U 05019B   19260.80493837 -.00000108  00000-0  00000-0 0  9997
2 28660  10.3602 267.4245 3326644 137.0302  31.0645  1.54371183 80493
BREEZE-M DEB [TANK]     
1 28661U 05019C   19260.43088114  .00001281  00000-0  36845-3 0  9996
2 28661  49.3358  86.4989 6069415  69.7695 343.5070  3.91911104194818